TimeEDT,TemperatureF,Dew PointF,Humidity,Sea Level PressureIn,VisibilityMPH,Wind Direction,Wind SpeedMPH,Gust SpeedMPH,PrecipitationIn,Events,Conditions,WindDirDegrees,DateUTC
12:54 AM,77.0,72.0,84,30.04,10.0,SSW,6.9,-,N/A,,Clear,210,2013-07-21 04:54:00
1:54 AM,77.0,72.0,84,30.03,10.0,SW,5.8,-,N/A,,Clear,220,2013-07-21 05:54:00
2:54 AM,77.0,72.0,84,30.01,10.0,SSW,4.6,-,N/A,,Clear,210,2013-07-21 06:54:00
3:54 AM,77.0,73.0,88,30.00,10.0,SSW,6.9,-,N/A,,Clear,200,2013-07-21 07:54:00
4:54 AM,75.9,71.1,85,30.00,10.0,SW,5.8,-,N/A,,Clear,220,2013-07-21 08:54:00
5:54 AM,75.0,70.0,84,30.01,10.0,SSW,3.5,-,N/A,,Clear,210,2013-07-21 09:54:00
6:54 AM,75.9,70.0,82,30.02,10.0,SSW,10.4,20.7,N/A,,Clear,210,2013-07-21 10:54:00
7:54 AM,79.0,72.0,79,30.02,10.0,SW,5.8,-,N/A,,Clear,230,2013-07-21 11:54:00
8:54 AM,81.0,72.0,74,30.03,10.0,WSW,6.9,-,N/A,,Scattered Clouds,250,2013-07-21 12:54:00
9:04 AM,80.6,71.6,74,30.03,10.0,West,8.1,-,N/A,,Mostly Cloudy,260,2013-07-21 13:04:00
9:19 AM,80.6,71.6,74,30.03,10.0,WSW,9.2,-,N/A,,Scattered Clouds,240,2013-07-21 13:19:00
9:54 AM,82.0,72.0,71,30.03,10.0,WSW,6.9,-,N/A,,Scattered Clouds,240,2013-07-21 13:54:00
10:05 AM,82.4,71.6,70,30.03,10.0,WSW,9.2,-,N/A,,Mostly Cloudy,250,2013-07-21 14:05:00
10:12 AM,82.4,71.6,70,30.03,10.0,WSW,8.1,-,N/A,,Scattered Clouds,250,2013-07-21 14:12:00
10:54 AM,82.9,73.0,72,30.03,10.0,WSW,6.9,-,N/A,,Scattered Clouds,250,2013-07-21 14:54:00
11:05 AM,82.4,73.4,74,30.03,10.0,WSW,8.1,-,N/A,,Mostly Cloudy,240,2013-07-21 15:05:00
11:14 AM,84.2,73.4,70,30.03,10.0,SSW,6.9,-,N/A,,Scattered Clouds,210,2013-07-21 15:14:00
11:21 AM,84.2,73.4,70,30.03,10.0,SW,9.2,-,N/A,,Mostly Cloudy,220,2013-07-21 15:21:00
11:35 AM,84.2,73.4,70,30.03,10.0,WSW,11.5,-,N/A,,Scattered Clouds,240,2013-07-21 15:35:00
11:45 AM,82.4,73.4,74,30.03,10.0,WSW,10.4,-,N/A,,Mostly Cloudy,240,2013-07-21 15:45:00
11:54 AM,84.0,73.0,69,30.03,10.0,SW,11.5,-,N/A,,Mostly Cloudy,220,2013-07-21 15:54:00
12:54 PM,84.0,73.0,69,30.04,10.0,SW,9.2,-,N/A,,Mostly Cloudy,220,2013-07-21 16:54:00
1:10 PM,82.4,73.4,74,30.04,10.0,SW,9.2,-,N/A,,Overcast,220,2013-07-21 17:10:00
1:54 PM,86.0,73.9,67,30.01,10.0,WSW,9.2,-,N/A,,Mostly Cloudy,240,2013-07-21 17:54:00
2:54 PM,87.1,73.0,63,29.99,10.0,SSW,10.4,-,N/A,,Mostly Cloudy,210,2013-07-21 18:54:00
3:54 PM,86.0,75.0,70,29.97,10.0,SSW,11.5,18.4,N/A,,Mostly Cloudy,200,2013-07-21 19:54:00
4:54 PM,82.9,75.9,79,29.96,10.0,SSW,4.6,-,0.02,,Overcast,210,2013-07-21 20:54:00
5:54 PM,84.9,73.9,69,29.95,10.0,South,9.2,-,N/A,,Scattered Clouds,190,2013-07-21 21:54:00
6:54 PM,84.0,73.9,72,29.95,10.0,SSW,8.1,-,N/A,,Clear,200,2013-07-21 22:54:00
7:54 PM,81.0,73.9,79,29.97,10.0,SSW,6.9,-,N/A,,Mostly Cloudy,200,2013-07-21 23:54:00
8:31 PM,80.6,73.4,79,29.98,10.0,South,5.8,-,N/A,,Partly Cloudy,190,2013-07-22 00:31:00
8:54 PM,80.1,73.9,81,29.98,10.0,South,5.8,-,N/A,,Partly Cloudy,190,2013-07-22 00:54:00
9:54 PM,80.1,75.0,85,29.99,10.0,SSW,6.9,-,N/A,,Overcast,200,2013-07-22 01:54:00
10:54 PM,79.0,75.0,88,30.00,10.0,SSW,4.6,-,N/A,,Mostly Cloudy,200,2013-07-22 02:54:00
11:54 PM,78.1,75.0,90,29.99,10.0,South,4.6,-,N/A,,Clear,180,2013-07-22 03:54:00